contact:dominique.lefevre@mio.osupytheas.fr, maurice.libes@osupytheas.fr
Project:EMSO Ligure-ouest http://www.emso-fr.org/EMSO-France
Sensor Aquadopp, line 13 Serial AQD14315 
DOI : "https://doi.org/10.17882/74513; https://doi.org/10.17882/83244" 
Title:EMSO Ligure Ouest : Data ligne ALBATROSS capteur AQUADOPP - deploiement 2021
Id,Date,Profondeur,Latitude,Longitude,X_East,Y_North,Z_Up,Amplitude_X,Amplitude_Y,Amplitude_Z,Batterie,SoundSpeed,Heading,Pitch,Roll,Pressure,Temperature,Speed,Direction
, , m, degrees North, degrees East, m.s-1, m.s-1,m.s-1, 1, 1, 1, Volt, m.s-1, degree, degree, degree, dbar, degree_C, m.s-1, degree
07,2021-11-18T21:30:00,1500.0,42.79,6.0312,-0.044,0.03,-0.006,48.0,49.0,47.0,12.6,1504.0,285.0,-0.8,-0.3,1473.027,13.11,0.053,304.3
07,2021-11-18T22:00:00,1500.0,42.79,6.0312,-0.053,0.019,-0.002,49.0,52.0,50.0,12.6,1504.0,276.3,-0.6,-0.3,1472.971,13.11,0.056,289.7
07,2021-11-18T22:30:00,1500.0,42.79,6.0312,-0.063,0.008,-0.007,49.0,49.0,50.0,12.6,1504.0,278.0,-0.8,-0.4,1472.913,13.11,0.063,277.2
07,2021-11-18T23:00:00,1500.0,42.79,6.0312,-0.053,0.003,0.0,49.0,49.0,51.0,12.6,1504.0,280.5,-0.8,-0.1,1472.929,13.11,0.053,273.2
07,2021-11-18T23:30:00,1500.0,42.79,6.0312,-0.056,-0.002,0.0,49.0,50.0,49.0,12.6,1504.0,279.5,-0.4,-0.1,1472.873,13.11,0.056,268.0
07,2021-11-19T00:00:00,1500.0,42.79,6.0312,-0.062,0.005,-0.008,49.0,49.0,50.0,12.6,1504.0,285.7,-1.0,-0.1,1472.88,13.11,0.062,274.6
07,2021-11-19T00:30:00,1500.0,42.79,6.0312,-0.052,0.011,0.021,50.0,50.0,51.0,12.6,1504.0,283.7,-0.5,-0.2,1472.842,13.11,0.053,281.9
07,2021-11-19T01:00:00,1500.0,42.79,6.0312,-0.057,0.009,0.0,51.0,49.0,52.0,12.6,1504.1,282.8,-0.4,-0.2,1472.874,13.12,0.057,279.0
07,2021-11-19T01:30:00,1500.0,42.79,6.0312,-0.057,-0.006,0.005,51.0,50.0,51.0,12.6,1504.1,278.5,-0.1,-0.2,1472.817,13.12,0.057,264.0
07,2021-11-19T02:00:00,1500.0,42.79,6.0312,-0.075,0.008,0.006,48.0,51.0,49.0,12.6,1504.0,287.2,-0.9,-0.3,1472.806,13.11,0.075,276.1
07,2021-11-19T02:30:00,1500.0,42.79,6.0312,-0.068,0.024,-0.001,50.0,50.0,48.0,12.6,1504.0,287.5,-0.3,0.1,1472.832,13.11,0.072,289.4
07,2021-11-19T03:00:00,1500.0,42.79,6.0312,-0.067,0.027,-0.004,49.0,50.0,50.0,12.6,1504.0,283.5,-0.4,-0.4,1472.84,13.11,0.072,291.9
07,2021-11-19T03:30:00,1500.0,42.79,6.0312,-0.065,0.013,0.005,46.0,46.0,47.0,12.6,1504.0,276.9,-0.3,-0.2,1472.84,13.11,0.066,281.3
07,2021-11-19T04:00:00,1500.0,42.79,6.0312,-0.07,-0.005,-0.005,47.0,47.0,46.0,12.6,1504.0,265.5,-0.3,-0.1,1472.89,13.11,0.07,265.9
07,2021-11-19T04:30:00,1500.0,42.79,6.0312,-0.072,0.008,0.0,46.0,47.0,47.0,12.6,1504.0,272.2,-0.5,-0.3,1472.968,13.1,0.072,276.3
07,2021-11-19T05:00:00,1500.0,42.79,6.0312,-0.07,0.002,0.002,46.0,47.0,47.0,12.6,1504.0,270.1,-0.5,-0.3,1472.994,13.11,0.07,271.6
07,2021-11-19T05:30:00,1500.0,42.79,6.0312,-0.079,0.002,0.003,45.0,47.0,47.0,12.6,1504.0,265.9,-0.5,-0.2,1473.022,13.11,0.079,271.4
07,2021-11-19T06:00:00,1500.0,42.79,6.0312,-0.066,0.027,0.0,46.0,47.0,48.0,12.6,1504.0,284.2,-0.5,-0.1,1473.055,13.11,0.071,292.2
07,2021-11-19T06:30:00,1500.0,42.79,6.0312,-0.063,0.02,-0.01,47.0,48.0,48.0,12.6,1504.0,279.7,-0.7,-0.4,1473.029,13.11,0.066,287.6
07,2021-11-19T07:00:00,1500.0,42.79,6.0312,-0.075,0.012,0.003,47.0,47.0,50.0,12.6,1504.0,276.7,-0.6,0.0,1473.027,13.11,0.075,279.1
07,2021-11-19T07:30:00,1500.0,42.79,6.0312,-0.067,0.016,-0.019,45.0,47.0,47.0,12.6,1504.0,286.2,-0.4,-0.2,1473.071,13.11,0.068,283.4
07,2021-11-19T08:00:00,1500.0,42.79,6.0312,-0.068,0.008,-0.01,47.0,48.0,46.0,12.6,1504.0,275.9,-0.8,0.0,1473.076,13.11,0.068,276.7
07,2021-11-19T08:30:00,1500.0,42.79,6.0312,-0.06,0.046,0.0,46.0,47.0,46.0,12.6,1504.0,293.0,-0.8,-0.1,1473.022,13.11,0.075,307.5
07,2021-11-19T09:00:00,1500.0,42.79,6.0312,-0.071,0.021,0.001,47.0,47.0,47.0,12.6,1504.0,281.1,-0.8,0.0,1473.023,13.11,0.074,286.5
07,2021-11-19T09:30:00,1500.0,42.79,6.0312,-0.058,0.038,0.007,47.0,48.0,48.0,12.6,1504.0,292.3,-0.9,-0.2,1473.007,13.11,0.069,303.2
07,2021-11-19T10:00:00,1500.0,42.79,6.0312,-0.057,0.028,0.006,48.0,47.0,47.0,12.6,1504.0,290.1,-0.6,-0.4,1472.978,13.11,0.063,296.2
07,2021-11-19T10:30:00,1500.0,42.79,6.0312,-0.051,0.028,0.016,48.0,46.0,45.0,12.6,1504.0,293.4,-0.5,-0.3,1472.958,13.11,0.058,298.8
07,2021-11-19T11:00:00,1500.0,42.79,6.0312,-0.057,0.032,-0.007,47.0,48.0,48.0,12.6,1504.0,293.9,-0.6,-0.3,1472.955,13.11,0.065,299.3
07,2021-11-19T11:30:00,1500.0,42.79,6.0312,-0.057,0.019,0.009,48.0,50.0,46.0,12.6,1504.0,284.0,-0.8,-0.1,1472.911,13.11,0.06,288.4
07,2021-11-19T12:00:00,1500.0,42.79,6.0312,-0.054,0.036,0.012,47.0,48.0,48.0,12.6,1504.0,296.3,-0.7,-0.4,1472.883,13.11,0.064,303.7
07,2021-11-19T12:30:00,1500.0,42.79,6.0312,-0.044,0.041,0.0,47.0,48.0,48.0,12.6,1504.0,293.3,-0.7,-0.1,1472.851,13.11,0.06,313.0
07,2021-11-19T13:00:00,1500.0,42.79,6.0312,-0.045,0.026,0.0,48.0,47.0,49.0,12.6,1504.0,288.3,-0.3,-0.2,1472.845,13.11,0.051,300.0
07,2021-11-19T13:30:00,1500.0,42.79,6.0312,-0.047,0.009,0.012,47.0,48.0,47.0,12.6,1504.0,281.3,-0.4,-0.3,1472.835,13.11,0.047,280.8
07,2021-11-19T14:00:00,1500.0,42.79,6.0312,-0.045,0.03,-0.009,48.0,48.0,49.0,12.6,1504.0,295.8,-0.6,-0.3,1472.83,13.11,0.054,303.7
07,2021-11-19T14:30:00,1500.0,42.79,6.0312,-0.053,0.015,0.011,48.0,49.0,46.0,12.6,1504.0,280.0,-0.4,-0.2,1472.848,13.11,0.055,285.8
07,2021-11-19T15:00:00,1500.0,42.79,6.0312,-0.047,0.021,-0.002,46.0,47.0,49.0,12.6,1504.0,283.6,-0.4,-0.3,1472.838,13.11,0.051,294.1
07,2021-11-19T15:30:00,1500.0,42.79,6.0312,-0.054,0.019,0.005,48.0,47.0,51.0,12.6,1504.0,287.1,-0.6,-0.2,1472.842,13.11,0.057,289.4
07,2021-11-19T16:00:00,1500.0,42.79,6.0312,-0.048,0.019,-0.011,48.0,49.0,46.0,12.6,1504.0,288.0,-0.4,-0.3,1472.825,13.11,0.051,291.6
07,2021-11-19T16:30:00,1500.0,42.79,6.0312,-0.057,0.01,0.001,47.0,48.0,48.0,12.6,1504.0,280.7,-0.4,-0.4,1472.878,13.11,0.057,279.9
07,2021-11-19T17:00:00,1500.0,42.79,6.0312,-0.051,0.026,0.006,47.0,49.0,48.0,12.6,1504.0,291.1,-0.2,-0.2,1472.867,13.11,0.057,297.0
07,2021-11-19T17:30:00,1500.0,42.79,6.0312,-0.057,0.025,0.015,46.0,49.0,48.0,12.6,1504.0,284.1,-0.4,-0.3,1472.942,13.11,0.062,293.7
07,2021-11-19T18:00:00,1500.0,42.79,6.0312,-0.049,0.021,0.007,50.0,48.0,47.0,12.6,1504.0,286.8,-0.3,-0.3,1472.917,13.11,0.053,293.2
07,2021-11-19T18:30:00,1500.0,42.79,6.0312,-0.047,0.025,0.02,48.0,49.0,49.0,12.6,1504.0,284.8,-0.4,-0.1,1472.911,13.1,0.053,298.0
07,2021-11-19T19:00:00,1500.0,42.79,6.0312,-0.033,0.025,0.01,48.0,47.0,47.0,12.6,1504.0,286.9,-0.3,-0.4,1472.929,13.1,0.041,307.1
07,2021-11-19T19:30:00,1500.0,42.79,6.0312,-0.047,0.027,0.001,48.0,48.0,47.0,12.6,1504.0,280.1,-0.3,-0.2,1472.918,13.1,0.054,299.9
07,2021-11-19T20:00:00,1500.0,42.79,6.0312,-0.043,0.027,-0.003,48.0,47.0,46.0,12.6,1504.0,292.0,-0.6,-0.4,1472.899,13.1,0.05,302.1
07,2021-11-19T20:30:00,1500.0,42.79,6.0312,-0.054,0.018,0.016,47.0,48.0,50.0,12.6,1504.0,277.2,-0.5,-0.2,1472.89,13.1,0.056,288.4
07,2021-11-19T21:00:00,1500.0,42.79,6.0312,-0.045,0.027,-0.001,49.0,48.0,48.0,12.6,1504.0,285.0,-0.4,-0.2,1472.886,13.1,0.052,301.0
07,2021-11-19T21:30:00,1500.0,42.79,6.0312,-0.033,0.023,-0.002,47.0,48.0,49.0,12.6,1504.0,292.2,-0.8,-0.1,1472.866,13.1,0.04,304.9
